Year,Month,Day,Hour,Minute,Value (Times are PST for temperature in C)
2010,03,19,00,00,4.80
2010,03,19,00,01,4.80
2010,03,19,00,02,4.70
2010,03,19,00,03,4.60
2010,03,19,00,04,4.60
2010,03,19,00,05,4.60
2010,03,19,00,06,4.60
2010,03,19,00,07,4.50
2010,03,19,00,08,4.50
2010,03,19,00,09,4.50
2010,03,19,00,10,4.40
2010,03,19,00,11,4.40
2010,03,19,00,12,4.30
2010,03,19,00,13,4.30
2010,03,19,00,14,4.20
2010,03,19,00,15,4.20
2010,03,19,00,16,4.20
2010,03,19,00,17,4.20
2010,03,19,00,18,4.20
2010,03,19,00,19,4.30
2010,03,19,00,20,4.30
2010,03,19,00,21,4.30
2010,03,19,00,22,4.20
2010,03,19,00,23,4.20
2010,03,19,00,24,4.20
2010,03,19,00,25,4.20
2010,03,19,00,26,4.20
2010,03,19,00,27,4.20
2010,03,19,00,28,4.20
2010,03,19,00,29,4.20
2010,03,19,00,30,4.20
2010,03,19,00,31,4.20
2010,03,19,00,32,4.20
2010,03,19,00,33,4.20
2010,03,19,00,34,4.20
2010,03,19,00,35,4.20
2010,03,19,00,36,4.20
2010,03,19,00,37,4.20
2010,03,19,00,38,4.20
2010,03,19,00,39,4.10
2010,03,19,00,40,4.10
2010,03,19,00,41,4.10
2010,03,19,00,42,4.10
2010,03,19,00,43,4.10
2010,03,19,00,44,4.10
2010,03,19,00,45,4.00
2010,03,19,00,46,4.00
2010,03,19,00,47,4.00
2010,03,19,00,48,3.90
2010,03,19,00,49,3.90
2010,03,19,00,50,3.80
2010,03,19,00,51,3.80
2010,03,19,00,52,3.80
2010,03,19,00,53,3.80
2010,03,19,00,54,3.80
2010,03,19,00,55,3.80
2010,03,19,00,56,3.80
2010,03,19,00,57,3.80
2010,03,19,00,58,3.80
2010,03,19,00,59,3.80
2010,03,19,01,00,3.80
2010,03,19,01,01,3.80
2010,03,19,01,02,3.80
2010,03,19,01,03,3.80
2010,03,19,01,04,3.80
2010,03,19,01,05,3.80
2010,03,19,01,06,3.80
2010,03,19,01,07,3.90
2010,03,19,01,08,3.90
2010,03,19,01,09,4.00
2010,03,19,01,10,4.00
2010,03,19,01,11,4.00
2010,03,19,01,12,4.00
2010,03,19,01,13,4.00
2010,03,19,01,14,4.00
2010,03,19,01,15,4.00
2010,03,19,01,16,4.00
2010,03,19,01,17,3.90
2010,03,19,01,18,3.90
2010,03,19,01,19,3.90
2010,03,19,01,20,3.90
2010,03,19,01,21,3.80
2010,03,19,01,22,3.80
2010,03,19,01,23,3.80
2010,03,19,01,24,3.80
2010,03,19,01,25,3.80
2010,03,19,01,26,3.70
2010,03,19,01,27,3.70
2010,03,19,01,28,3.60
2010,03,19,01,29,3.60
2010,03,19,01,30,3.60
2010,03,19,01,31,3.60
2010,03,19,01,32,3.50
2010,03,19,01,33,3.50
2010,03,19,01,34,3.50
2010,03,19,01,35,3.50
2010,03,19,01,36,3.50
2010,03,19,01,37,3.50
2010,03,19,01,38,3.50
2010,03,19,01,39,3.50
2010,03,19,01,40,3.60
2010,03,19,01,41,3.60
2010,03,19,01,42,3.60
2010,03,19,01,43,3.60
2010,03,19,01,44,3.50
2010,03,19,01,45,3.50
2010,03,19,01,46,3.50
2010,03,19,01,47,3.40
2010,03,19,01,48,3.30
2010,03,19,01,49,3.30
2010,03,19,01,50,3.30
2010,03,19,01,51,3.20
2010,03,19,01,52,3.20
2010,03,19,01,53,3.20
2010,03,19,01,54,3.20
2010,03,19,01,55,3.20
2010,03,19,01,56,3.20
2010,03,19,01,57,3.30
2010,03,19,01,58,3.30
2010,03,19,01,59,3.30
2010,03,19,02,00,3.30
2010,03,19,02,01,3.30
2010,03,19,02,02,3.40
2010,03,19,02,03,3.40
2010,03,19,02,04,3.50
2010,03,19,02,05,3.50
2010,03,19,02,06,3.50
2010,03,19,02,07,3.50
2010,03,19,02,08,3.50
2010,03,19,02,09,3.50
2010,03,19,02,10,3.50
2010,03,19,02,11,3.50
2010,03,19,02,12,3.50
2010,03,19,02,13,3.50
2010,03,19,02,14,3.60
2010,03,19,02,15,3.60
2010,03,19,02,16,3.60
2010,03,19,02,17,3.60
2010,03,19,02,18,3.60
2010,03,19,02,19,3.60
2010,03,19,02,20,3.60
2010,03,19,02,21,3.50
2010,03,19,02,22,3.60
2010,03,19,02,23,3.60
2010,03,19,02,24,3.60
2010,03,19,02,25,3.70
2010,03,19,02,26,3.80
2010,03,19,02,27,3.90
2010,03,19,02,28,4.00
2010,03,19,02,29,4.10
2010,03,19,02,30,4.20
2010,03,19,02,31,4.20
2010,03,19,02,32,4.40
2010,03,19,02,33,4.50
2010,03,19,02,34,4.50
2010,03,19,02,35,4.60
2010,03,19,02,36,4.60
2010,03,19,02,37,4.60
2010,03,19,02,38,4.60
2010,03,19,02,39,4.60
2010,03,19,02,40,4.70
2010,03,19,02,41,4.70
2010,03,19,02,42,4.80
2010,03,19,02,43,4.80
2010,03,19,02,44,4.80
2010,03,19,02,45,4.80
2010,03,19,02,46,4.90
2010,03,19,02,47,4.90
2010,03,19,02,48,4.90
2010,03,19,02,49,4.90
2010,03,19,02,50,4.90
2010,03,19,02,51,4.90
2010,03,19,02,52,4.90
2010,03,19,02,53,4.80
2010,03,19,02,54,4.70
2010,03,19,02,55,4.60
2010,03,19,02,56,4.50
2010,03,19,02,57,4.40
2010,03,19,02,58,4.40
2010,03,19,02,59,4.40
2010,03,19,03,00,4.30
2010,03,19,03,01,4.40
2010,03,19,03,02,4.40
2010,03,19,03,03,4.50
2010,03,19,03,04,4.60
2010,03,19,03,05,4.70
2010,03,19,03,06,4.70
2010,03,19,03,07,4.80
2010,03,19,03,08,4.80
2010,03,19,03,09,4.90
2010,03,19,03,10,4.90
2010,03,19,03,11,5.00
2010,03,19,03,12,5.10
2010,03,19,03,13,5.10
2010,03,19,03,14,5.10
2010,03,19,03,15,5.20
2010,03,19,03,16,5.30
2010,03,19,03,17,5.30
2010,03,19,03,18,5.30
2010,03,19,03,19,5.30
2010,03,19,03,20,5.30
2010,03,19,03,21,5.40
2010,03,19,03,22,5.40
2010,03,19,03,23,5.50
2010,03,19,03,24,5.50
2010,03,19,03,25,5.50
2010,03,19,03,26,5.50
2010,03,19,03,27,5.50
2010,03,19,03,28,5.50
2010,03,19,03,29,5.50
2010,03,19,03,30,5.50
2010,03,19,03,31,5.50
2010,03,19,03,32,5.50
2010,03,19,03,33,5.50
2010,03,19,03,34,5.50
2010,03,19,03,35,5.50
2010,03,19,03,36,5.60
2010,03,19,03,37,5.70
2010,03,19,03,38,5.70
2010,03,19,03,39,5.70
2010,03,19,03,40,5.70
2010,03,19,03,41,5.80
2010,03,19,03,42,5.80
2010,03,19,03,43,5.90
2010,03,19,03,44,6.00
2010,03,19,03,45,6.00
2010,03,19,03,46,6.10
2010,03,19,03,47,6.10
2010,03,19,03,48,6.10
2010,03,19,03,49,6.20
2010,03,19,03,50,6.20
2010,03,19,03,51,6.20
2010,03,19,03,52,6.30
2010,03,19,03,53,6.30
2010,03,19,03,54,6.30
2010,03,19,03,55,6.40
2010,03,19,03,56,6.40
2010,03,19,03,57,6.40
2010,03,19,03,58,6.40
2010,03,19,03,59,6.40
2010,03,19,04,00,6.40
2010,03,19,04,01,6.40
2010,03,19,04,02,6.40
2010,03,19,04,03,6.40
2010,03,19,04,04,6.40
2010,03,19,04,05,6.40
2010,03,19,04,06,6.40
2010,03,19,04,07,6.40
2010,03,19,04,08,6.40
2010,03,19,04,09,6.40
2010,03,19,04,10,6.30
2010,03,19,04,11,6.30
2010,03,19,04,12,6.20
2010,03,19,04,13,6.20
2010,03,19,04,14,6.10
2010,03,19,04,15,6.10
2010,03,19,04,16,6.10
2010,03,19,04,17,6.10
2010,03,19,04,18,6.10
2010,03,19,04,19,6.10
2010,03,19,04,20,6.10
2010,03,19,04,21,6.10
2010,03,19,04,22,6.10
2010,03,19,04,23,6.10
2010,03,19,04,24,6.10
2010,03,19,04,25,6.10
2010,03,19,04,26,6.10
2010,03,19,04,27,6.00
2010,03,19,04,28,6.00
2010,03,19,04,29,6.00
2010,03,19,04,30,5.90
2010,03,19,04,31,5.90
2010,03,19,04,32,5.80
2010,03,19,04,33,5.70
2010,03,19,04,34,5.70
2010,03,19,04,35,5.70
2010,03,19,04,36,5.70
2010,03,19,04,37,5.70
2010,03,19,04,38,5.70
2010,03,19,04,39,5.60
2010,03,19,04,40,5.60
2010,03,19,04,41,5.60
2010,03,19,04,42,5.50
2010,03,19,04,43,5.50
2010,03,19,04,44,5.50
2010,03,19,04,45,5.40
2010,03,19,04,46,5.40
2010,03,19,04,47,5.30
2010,03,19,04,48,5.30
2010,03,19,04,49,5.30
2010,03,19,04,50,5.30
2010,03,19,04,51,5.30
2010,03,19,04,52,5.30
2010,03,19,04,53,5.30
2010,03,19,04,54,5.30
2010,03,19,04,55,5.30
2010,03,19,04,56,5.20
2010,03,19,04,57,5.20
2010,03,19,04,58,5.20
2010,03,19,04,59,5.10
2010,03,19,05,00,5.10
2010,03,19,05,01,5.10
2010,03,19,05,02,5.10
2010,03,19,05,03,5.10
2010,03,19,05,04,5.10
2010,03,19,05,05,5.10
2010,03,19,05,06,5.10
2010,03,19,05,07,5.10
2010,03,19,05,08,5.00
2010,03,19,05,09,4.90
2010,03,19,05,10,4.90
2010,03,19,05,11,4.80
2010,03,19,05,12,4.80
2010,03,19,05,13,4.70
2010,03,19,05,14,4.70
2010,03,19,05,15,4.60
2010,03,19,05,16,4.60
2010,03,19,05,17,4.60
2010,03,19,05,18,4.60
2010,03,19,05,19,4.60
2010,03,19,05,20,4.60
2010,03,19,05,21,4.60
2010,03,19,05,22,4.60
2010,03,19,05,23,4.60
2010,03,19,05,24,4.60
2010,03,19,05,25,4.60
2010,03,19,05,26,4.60
2010,03,19,05,27,4.60
2010,03,19,05,28,4.60
2010,03,19,05,29,4.60
2010,03,19,05,30,4.60
2010,03,19,05,31,4.60
2010,03,19,05,32,4.60
2010,03,19,05,33,4.60
2010,03,19,05,34,4.50
2010,03,19,05,35,4.50
2010,03,19,05,36,4.50
2010,03,19,05,37,4.40
2010,03,19,05,38,4.40
2010,03,19,05,39,4.40
2010,03,19,05,40,4.40
2010,03,19,05,41,4.30
2010,03,19,05,42,4.30
2010,03,19,05,43,4.20
2010,03,19,05,44,4.20
2010,03,19,05,45,4.20
2010,03,19,05,46,4.10
2010,03,19,05,47,4.10
2010,03,19,05,48,4.10
2010,03,19,05,49,4.10
2010,03,19,05,50,4.10
2010,03,19,05,51,4.00
2010,03,19,05,52,4.00
2010,03,19,05,53,3.90
2010,03,19,05,54,3.80
2010,03,19,05,55,3.80
2010,03,19,05,56,3.80
2010,03,19,05,57,3.80
2010,03,19,05,58,3.80
2010,03,19,05,59,3.70
2010,03,19,06,00,3.70
2010,03,19,06,01,3.70
2010,03,19,06,02,3.80
2010,03,19,06,03,3.90
2010,03,19,06,04,4.10
2010,03,19,06,05,4.20
2010,03,19,06,06,4.40
2010,03,19,06,07,4.40
2010,03,19,06,08,4.50
2010,03,19,06,09,4.50
2010,03,19,06,10,4.50
2010,03,19,06,11,4.60
2010,03,19,06,12,4.60
2010,03,19,06,13,4.60
2010,03,19,06,14,4.60
2010,03,19,06,15,4.60
2010,03,19,06,16,4.60
2010,03,19,06,17,4.60
2010,03,19,06,18,4.60
2010,03,19,06,19,4.50
2010,03,19,06,20,4.40
2010,03,19,06,21,4.30
2010,03,19,06,22,4.10
2010,03,19,06,23,4.00
2010,03,19,06,24,3.90
2010,03,19,06,25,3.70
2010,03,19,06,26,3.50
2010,03,19,06,27,3.50
2010,03,19,06,28,3.30
2010,03,19,06,29,3.30
2010,03,19,06,30,3.30
2010,03,19,06,31,3.30
2010,03,19,06,32,3.30
2010,03,19,06,33,3.30
2010,03,19,06,34,3.30
2010,03,19,06,35,3.30
2010,03,19,06,36,3.30
2010,03,19,06,37,3.30
2010,03,19,06,38,3.30
2010,03,19,06,39,3.20
2010,03,19,06,40,3.20
2010,03,19,06,41,3.20
2010,03,19,06,42,3.20
2010,03,19,06,43,3.10
2010,03,19,06,44,3.10
2010,03,19,06,45,3.00
2010,03,19,06,46,2.90
2010,03,19,06,47,2.90
2010,03,19,06,48,2.90
2010,03,19,06,49,2.90
2010,03,19,06,50,2.90
2010,03,19,06,51,2.90
2010,03,19,06,52,2.90
2010,03,19,06,53,2.90
2010,03,19,06,54,2.90
2010,03,19,06,55,2.90
2010,03,19,06,56,3.10
2010,03,19,06,57,3.10
2010,03,19,06,58,3.10
2010,03,19,06,59,3.10
2010,03,19,07,00,3.10
2010,03,19,07,01,3.10
2010,03,19,07,02,3.10
2010,03,19,07,03,3.10
2010,03,19,07,04,2.90
2010,03,19,07,05,2.80
2010,03,19,07,06,2.70
2010,03,19,07,07,2.50
2010,03,19,07,08,2.40
2010,03,19,07,09,2.30
2010,03,19,07,10,2.20
2010,03,19,07,11,2.20
2010,03,19,07,12,2.20
2010,03,19,07,13,2.20
2010,03,19,07,14,2.20
2010,03,19,07,15,2.30
2010,03,19,07,16,2.40
2010,03,19,07,17,2.50
2010,03,19,07,18,2.50
2010,03,19,07,19,2.60
2010,03,19,07,20,2.70
2010,03,19,07,21,2.70
2010,03,19,07,22,2.80
2010,03,19,07,23,2.80
2010,03,19,07,24,2.90
2010,03,19,07,25,2.90
2010,03,19,07,26,2.90
2010,03,19,07,27,2.90
2010,03,19,07,28,2.90
2010,03,19,07,29,2.90
2010,03,19,07,30,2.90
2010,03,19,07,31,2.90
2010,03,19,07,32,2.90
2010,03,19,07,33,2.90
2010,03,19,07,34,2.90
2010,03,19,07,35,2.90
2010,03,19,07,36,2.90
2010,03,19,07,37,2.80
2010,03,19,07,38,2.80
2010,03,19,07,39,2.80
2010,03,19,07,40,2.80
2010,03,19,07,41,2.70
2010,03,19,07,42,2.70
2010,03,19,07,43,2.70
2010,03,19,07,44,2.70
2010,03,19,07,45,2.70
2010,03,19,07,46,2.70
2010,03,19,07,47,2.60
2010,03,19,07,48,2.60
2010,03,19,07,49,2.60
2010,03,19,07,50,2.60
2010,03,19,07,51,2.60
2010,03,19,07,52,2.60
2010,03,19,07,53,2.60
2010,03,19,07,54,2.60
2010,03,19,07,55,2.60
2010,03,19,07,56,2.60
2010,03,19,07,57,2.70
2010,03,19,07,58,2.70
2010,03,19,07,59,2.70
2010,03,19,08,00,2.80
2010,03,19,08,01,2.80
2010,03,19,08,02,2.90
2010,03,19,08,03,3.00
2010,03,19,08,04,3.10
2010,03,19,08,05,3.20
2010,03,19,08,06,3.40
2010,03,19,08,07,3.70
2010,03,19,08,08,3.90
2010,03,19,08,09,4.10
2010,03,19,08,10,4.30
2010,03,19,08,11,4.60
2010,03,19,08,12,4.70
2010,03,19,08,13,4.90
2010,03,19,08,14,5.10
2010,03,19,08,15,5.20
2010,03,19,08,16,5.40
2010,03,19,08,17,5.50
2010,03,19,08,18,5.60
2010,03,19,08,19,5.70
2010,03,19,08,20,5.70
2010,03,19,08,21,5.80
2010,03,19,08,22,5.90
2010,03,19,08,23,5.90
2010,03,19,08,24,6.00
2010,03,19,08,25,6.00
2010,03,19,08,26,6.00
2010,03,19,08,27,6.10
2010,03,19,08,28,6.20
2010,03,19,08,29,6.30
2010,03,19,08,30,6.30
2010,03,19,08,31,6.40
2010,03,19,08,32,6.50
2010,03,19,08,33,6.60
2010,03,19,08,34,6.60
2010,03,19,08,35,6.60
2010,03,19,08,36,6.60
2010,03,19,08,37,6.60
2010,03,19,08,38,6.60
2010,03,19,08,39,6.60
2010,03,19,08,40,6.70
2010,03,19,08,41,6.70
2010,03,19,08,42,6.70
2010,03,19,08,43,6.80
2010,03,19,08,44,6.80
2010,03,19,08,45,6.80
2010,03,19,08,46,6.80
2010,03,19,08,47,6.80
2010,03,19,08,48,6.90
2010,03,19,08,49,6.90
2010,03,19,08,50,7.00
2010,03,19,08,51,7.00
2010,03,19,08,52,7.10
2010,03,19,08,53,7.10
2010,03,19,08,54,7.30
2010,03,19,08,55,7.30
2010,03,19,08,56,7.30
2010,03,19,08,57,7.30
2010,03,19,08,58,7.30
2010,03,19,08,59,7.40
2010,03,19,09,00,7.40
2010,03,19,09,01,7.50
2010,03,19,09,02,7.50
2010,03,19,09,03,7.50
2010,03,19,09,04,7.60
2010,03,19,09,05,7.60
2010,03,19,09,06,7.70
2010,03,19,09,07,7.70
2010,03,19,09,08,7.80
2010,03,19,09,09,7.80
2010,03,19,09,10,7.80
2010,03,19,09,11,7.80
2010,03,19,09,12,7.80
2010,03,19,09,13,7.80
2010,03,19,09,14,7.80
2010,03,19,09,15,7.80
2010,03,19,09,16,7.90
2010,03,19,09,17,7.90
2010,03,19,09,18,7.90
2010,03,19,09,19,8.00
2010,03,19,09,20,8.00
2010,03,19,09,21,8.00
2010,03,19,09,22,8.00
2010,03,19,09,23,8.00
2010,03,19,09,24,8.10
2010,03,19,09,25,8.10
2010,03,19,09,26,8.10
2010,03,19,09,27,8.10
2010,03,19,09,28,8.10
2010,03,19,09,29,8.10
2010,03,19,09,30,8.20
2010,03,19,09,31,8.20
2010,03,19,09,32,8.20
2010,03,19,09,33,8.20
2010,03,19,09,34,8.20
2010,03,19,09,35,8.20
2010,03,19,09,36,8.20
2010,03,19,09,37,8.20
2010,03,19,09,38,8.20
2010,03,19,09,39,8.30
2010,03,19,09,40,8.30
2010,03,19,09,41,8.40
2010,03,19,09,42,8.40
2010,03,19,09,43,8.30
2010,03,19,09,44,8.30
2010,03,19,09,45,8.30
2010,03,19,09,46,8.20
2010,03,19,09,47,8.20
2010,03,19,09,48,8.20
2010,03,19,09,49,8.20
2010,03,19,09,50,8.30
2010,03,19,09,51,8.30
2010,03,19,09,52,8.30
2010,03,19,09,53,8.20
2010,03,19,09,54,8.20
2010,03,19,09,55,8.20
2010,03,19,09,56,8.20
2010,03,19,09,57,8.20
2010,03,19,09,58,8.20
2010,03,19,09,59,8.30
2010,03,19,10,00,8.30
2010,03,19,10,01,8.40
2010,03,19,10,02,8.40
2010,03,19,10,03,8.40
2010,03,19,10,04,8.40
2010,03,19,10,05,8.50
2010,03,19,10,06,8.50
2010,03,19,10,07,8.50
2010,03,19,10,08,8.50
2010,03,19,10,09,8.50
2010,03,19,10,10,8.60
2010,03,19,10,11,8.60
2010,03,19,10,12,8.60
2010,03,19,10,13,8.70
2010,03,19,10,14,8.70
2010,03,19,10,15,8.70
2010,03,19,10,16,8.80
2010,03,19,10,17,8.80
2010,03,19,10,18,8.80
2010,03,19,10,19,8.90
2010,03,19,10,20,8.90
2010,03,19,10,21,8.90
2010,03,19,10,22,9.00
2010,03,19,10,23,9.00
2010,03,19,10,24,9.10
2010,03,19,10,25,9.00
2010,03,19,10,26,9.10
2010,03,19,10,27,9.20
2010,03,19,10,28,9.20
2010,03,19,10,29,9.20
2010,03,19,10,30,9.20
2010,03,19,10,31,9.20
2010,03,19,10,32,9.30
2010,03,19,10,33,9.30
2010,03,19,10,34,9.40
2010,03,19,10,35,9.40
2010,03,19,10,36,9.40
2010,03,19,10,37,9.40
2010,03,19,10,38,9.40
2010,03,19,10,39,9.40
2010,03,19,10,40,9.40
2010,03,19,10,41,9.40
2010,03,19,10,42,9.40
2010,03,19,10,43,9.40
2010,03,19,10,44,9.40
2010,03,19,10,45,9.40
2010,03,19,10,46,9.30
2010,03,19,10,47,9.30
2010,03,19,10,48,9.30
2010,03,19,10,49,9.40
2010,03,19,10,50,9.40
2010,03,19,10,51,9.50
2010,03,19,10,52,9.60
2010,03,19,10,53,9.70
2010,03,19,10,54,9.70
2010,03,19,10,55,9.80
2010,03,19,10,56,9.90
2010,03,19,10,57,9.90
2010,03,19,10,58,10.10
2010,03,19,10,59,10.10
2010,03,19,11,00,10.00
2010,03,19,11,01,9.90
2010,03,19,11,02,9.90
2010,03,19,11,03,9.90
2010,03,19,11,04,9.90
2010,03,19,11,05,9.90
2010,03,19,11,06,10.00
2010,03,19,11,07,10.10
2010,03,19,11,08,10.20
2010,03,19,11,09,10.30
2010,03,19,11,10,10.30
2010,03,19,11,11,10.40
2010,03,19,11,12,10.50
2010,03,19,11,13,10.60
2010,03,19,11,14,10.60
2010,03,19,11,15,10.60
2010,03,19,11,16,10.40
2010,03,19,11,17,10.40
2010,03,19,11,18,10.40
2010,03,19,11,19,10.40
2010,03,19,11,20,10.40
2010,03,19,11,21,10.40
2010,03,19,11,22,10.40
2010,03,19,11,23,10.40
2010,03,19,11,24,10.40
2010,03,19,11,25,10.50
2010,03,19,11,26,10.60
2010,03,19,11,27,10.70
2010,03,19,11,28,10.90
2010,03,19,11,29,10.90
2010,03,19,11,30,10.90
2010,03,19,11,31,10.80
2010,03,19,11,32,10.80
2010,03,19,11,33,10.80
2010,03,19,11,34,10.80
2010,03,19,11,35,10.70
2010,03,19,11,36,10.60
2010,03,19,11,37,10.60
2010,03,19,11,38,10.60
2010,03,19,11,39,10.40
2010,03,19,11,40,10.40
2010,03,19,11,41,10.40
2010,03,19,11,42,10.40
2010,03,19,11,43,10.40
2010,03,19,11,44,10.40
2010,03,19,11,45,10.40
2010,03,19,11,46,10.40
2010,03,19,11,47,10.40
2010,03,19,11,48,10.40
2010,03,19,11,49,10.40
2010,03,19,11,50,10.40
2010,03,19,11,51,10.40
2010,03,19,11,52,10.50
2010,03,19,11,53,10.60
2010,03,19,11,54,10.60
2010,03,19,11,55,10.60
2010,03,19,11,56,10.60
2010,03,19,11,57,10.70
2010,03,19,11,58,10.70
2010,03,19,11,59,10.70
2010,03,19,12,00,10.70
2010,03,19,12,01,10.70
2010,03,19,12,02,10.80
2010,03,19,12,03,10.90
2010,03,19,12,04,10.90
2010,03,19,12,05,10.90
2010,03,19,12,06,10.90
2010,03,19,12,07,10.90
2010,03,19,12,08,10.90
2010,03,19,12,09,10.90
2010,03,19,12,10,10.90
2010,03,19,12,11,10.90
2010,03,19,12,12,11.00
2010,03,19,12,13,11.10
2010,03,19,12,14,11.30
2010,03,19,12,15,11.30
2010,03,19,12,16,11.30
2010,03,19,12,17,11.20
2010,03,19,12,18,11.20
2010,03,19,12,19,11.20
2010,03,19,12,20,11.10
2010,03,19,12,21,11.10
2010,03,19,12,22,10.90
2010,03,19,12,23,10.90
2010,03,19,12,24,11.00
2010,03,19,12,25,11.10
2010,03,19,12,26,11.10
2010,03,19,12,27,11.10
2010,03,19,12,28,11.10
2010,03,19,12,29,11.10
2010,03,19,12,30,11.10
2010,03,19,12,31,11.10
2010,03,19,12,32,11.10
2010,03,19,12,33,11.10
2010,03,19,12,34,11.10
2010,03,19,12,35,11.10
2010,03,19,12,36,11.10
2010,03,19,12,37,11.10
2010,03,19,12,38,11.10
2010,03,19,12,39,11.10
2010,03,19,12,40,11.10
2010,03,19,12,41,11.20
2010,03,19,12,42,11.20
2010,03,19,12,43,11.30
2010,03,19,12,44,11.30
2010,03,19,12,45,11.30
2010,03,19,12,46,11.20
2010,03,19,12,47,11.20
2010,03,19,12,48,11.10
2010,03,19,12,49,11.20
2010,03,19,12,50,11.20
2010,03,19,12,51,11.20
2010,03,19,12,52,11.20
2010,03,19,12,53,11.20
2010,03,19,12,54,11.20
2010,03,19,12,55,11.30
2010,03,19,12,56,11.30
2010,03,19,12,57,11.30
2010,03,19,12,58,11.20
2010,03,19,12,59,11.20
2010,03,19,13,00,11.20
2010,03,19,13,01,11.20
2010,03,19,13,02,11.30
2010,03,19,13,03,11.40
2010,03,19,13,04,11.30
2010,03,19,13,05,11.30
2010,03,19,13,06,11.30
2010,03,19,13,07,11.30
2010,03,19,13,08,11.30
2010,03,19,13,09,11.40
2010,03,19,13,10,11.40
2010,03,19,13,11,11.40
2010,03,19,13,12,11.40
2010,03,19,13,13,11.40
2010,03,19,13,14,11.40
2010,03,19,13,15,11.40
2010,03,19,13,16,11.40
2010,03,19,13,17,11.50
2010,03,19,13,18,11.50
2010,03,19,13,19,11.40
2010,03,19,13,20,11.50
2010,03,19,13,21,11.60
2010,03,19,13,22,11.70
2010,03,19,13,23,11.70
2010,03,19,13,24,11.70
2010,03,19,13,25,11.70
2010,03,19,13,26,11.60
2010,03,19,13,27,11.50
2010,03,19,13,28,11.40
2010,03,19,13,29,11.40
2010,03,19,13,30,11.40
2010,03,19,13,31,11.40
2010,03,19,13,32,11.40
2010,03,19,13,33,11.30
2010,03,19,13,34,11.20
2010,03,19,13,35,11.20
2010,03,19,13,36,11.30
2010,03,19,13,37,11.40
2010,03,19,13,38,11.40
2010,03,19,13,39,11.50
2010,03,19,13,40,11.60
2010,03,19,13,41,11.60
2010,03,19,13,42,11.60
2010,03,19,13,43,11.60
2010,03,19,13,44,11.60
2010,03,19,13,45,11.60
2010,03,19,13,46,11.60
2010,03,19,13,47,11.60
2010,03,19,13,48,11.60
2010,03,19,13,49,11.50
2010,03,19,13,50,11.40
2010,03,19,13,51,11.30
2010,03,19,13,52,11.30
2010,03,19,13,53,11.40
2010,03,19,13,54,11.40
2010,03,19,13,55,11.40
2010,03,19,13,56,11.40
2010,03,19,13,57,11.40
2010,03,19,13,58,11.40
2010,03,19,13,59,11.40
2010,03,19,14,00,11.60
2010,03,19,14,01,11.60
2010,03,19,14,02,11.50
2010,03,19,14,03,11.60
2010,03,19,14,04,11.60
2010,03,19,14,05,11.60
2010,03,19,14,06,11.60
2010,03,19,14,07,11.70
2010,03,19,14,08,11.70
2010,03,19,14,09,11.80
2010,03,19,14,10,11.80
2010,03,19,14,11,11.90
2010,03,19,14,12,12.00
2010,03,19,14,13,12.10
2010,03,19,14,14,12.20
2010,03,19,14,15,12.30
2010,03,19,14,16,12.30
2010,03,19,14,17,12.20
2010,03,19,14,18,12.10
2010,03,19,14,19,12.10
2010,03,19,14,20,12.10
2010,03,19,14,21,12.10
2010,03,19,14,22,12.10
2010,03,19,14,23,12.20
2010,03,19,14,24,12.20
2010,03,19,14,25,12.30
2010,03,19,14,26,12.30
2010,03,19,14,27,12.20
2010,03,19,14,28,12.10
2010,03,19,14,29,12.00
2010,03,19,14,30,12.00
2010,03,19,14,31,12.00
2010,03,19,14,32,11.90
2010,03,19,14,33,12.00
2010,03,19,14,34,12.00
2010,03,19,14,35,11.90
2010,03,19,14,36,11.90
2010,03,19,14,37,12.00
2010,03,19,14,38,12.00
2010,03,19,14,39,12.10
2010,03,19,14,40,12.20
2010,03,19,14,41,12.30
2010,03,19,14,42,12.30
2010,03,19,14,43,12.20
2010,03,19,14,44,12.20
2010,03,19,14,45,12.10
2010,03,19,14,46,12.10
2010,03,19,14,47,12.10
2010,03,19,14,48,12.10
2010,03,19,14,49,12.00
2010,03,19,14,50,11.90
2010,03,19,14,51,11.90
2010,03,19,14,52,11.90
2010,03,19,14,53,11.90
2010,03,19,14,54,11.80
2010,03,19,14,55,11.90
2010,03,19,14,56,11.90
2010,03,19,14,57,11.90
2010,03,19,14,58,12.00
2010,03,19,14,59,12.00
2010,03,19,15,00,12.10
2010,03,19,15,01,12.10
2010,03,19,15,02,12.10
2010,03,19,15,03,12.10
2010,03,19,15,04,12.10
2010,03,19,15,05,12.10
2010,03,19,15,06,12.10
2010,03,19,15,07,12.10
2010,03,19,15,08,12.10
2010,03,19,15,09,12.20
2010,03,19,15,10,12.30
2010,03,19,15,11,12.30
2010,03,19,15,12,12.50
2010,03,19,15,13,12.50
2010,03,19,15,14,12.50
2010,03,19,15,15,12.50
2010,03,19,15,16,12.40
2010,03,19,15,17,12.30
2010,03,19,15,18,12.30
2010,03,19,15,19,12.30
2010,03,19,15,20,12.30
2010,03,19,15,21,12.30
2010,03,19,15,22,12.30
2010,03,19,15,23,12.30
2010,03,19,15,24,12.30
2010,03,19,15,25,12.30
2010,03,19,15,26,12.30
2010,03,19,15,27,12.30
2010,03,19,15,28,12.30
2010,03,19,15,29,12.30
2010,03,19,15,30,12.30
2010,03,19,15,31,12.30
2010,03,19,15,32,12.30
2010,03,19,15,33,12.40
2010,03,19,15,34,12.40
2010,03,19,15,35,12.50
2010,03,19,15,36,12.50
2010,03,19,15,37,12.50
2010,03,19,15,38,12.50
2010,03,19,15,39,12.50
2010,03,19,15,40,12.40
2010,03,19,15,41,12.40
2010,03,19,15,42,12.40
2010,03,19,15,43,12.40
2010,03,19,15,44,12.50
2010,03,19,15,45,12.50
2010,03,19,15,46,12.40
2010,03,19,15,47,12.50
2010,03,19,15,48,12.50
2010,03,19,15,49,12.60
2010,03,19,15,50,12.60
2010,03,19,15,51,12.60
2010,03,19,15,52,12.50
2010,03,19,15,53,12.50
2010,03,19,15,54,12.40
2010,03,19,15,55,12.40
2010,03,19,15,56,12.40
2010,03,19,15,57,12.40
2010,03,19,15,58,12.40
2010,03,19,15,59,12.30
2010,03,19,16,00,12.30
2010,03,19,16,01,12.30
2010,03,19,16,02,12.40
2010,03,19,16,03,12.40
2010,03,19,16,04,12.40
2010,03,19,16,05,12.40
2010,03,19,16,06,12.40
2010,03,19,16,07,12.40
2010,03,19,16,08,12.40
2010,03,19,16,09,12.50
2010,03,19,16,10,12.50
2010,03,19,16,11,12.50
2010,03,19,16,12,12.50
2010,03,19,16,13,12.50
2010,03,19,16,14,12.40
2010,03,19,16,15,12.30
2010,03,19,16,16,12.30
2010,03,19,16,17,12.40
2010,03,19,16,18,12.40
2010,03,19,16,19,12.40
2010,03,19,16,20,12.40
2010,03,19,16,21,12.40
2010,03,19,16,22,12.40
2010,03,19,16,23,12.40
2010,03,19,16,24,12.40
2010,03,19,16,25,12.40
2010,03,19,16,26,12.40
2010,03,19,16,27,12.40
2010,03,19,16,28,12.40
2010,03,19,16,29,12.40
2010,03,19,16,30,12.50
2010,03,19,16,31,12.50
2010,03,19,16,32,12.60
2010,03,19,16,33,12.50
2010,03,19,16,34,12.50
2010,03,19,16,35,12.50
2010,03,19,16,36,12.50
2010,03,19,16,37,12.50
2010,03,19,16,38,12.50
2010,03,19,16,39,12.50
2010,03,19,16,40,12.50
2010,03,19,16,41,12.40
2010,03,19,16,42,12.50
2010,03,19,16,43,12.50
2010,03,19,16,44,12.50
2010,03,19,16,45,12.60
2010,03,19,16,46,12.60
2010,03,19,16,47,12.70
2010,03,19,16,48,12.70
2010,03,19,16,49,12.70
2010,03,19,16,50,12.80
2010,03,19,16,51,12.70
2010,03,19,16,52,12.70
2010,03,19,16,53,12.70
2010,03,19,16,54,12.80
2010,03,19,16,55,12.80
2010,03,19,16,56,12.80
2010,03,19,16,57,12.80
2010,03,19,16,58,12.80
2010,03,19,16,59,12.80
2010,03,19,17,00,12.80
2010,03,19,17,01,12.80
2010,03,19,17,02,12.80
2010,03,19,17,03,12.70
2010,03,19,17,04,12.60
2010,03,19,17,05,12.60
2010,03,19,17,06,12.60
2010,03,19,17,07,12.60
2010,03,19,17,08,12.60
2010,03,19,17,09,12.60
2010,03,19,17,10,12.70
2010,03,19,17,11,12.70
2010,03,19,17,12,12.70
2010,03,19,17,13,12.70
2010,03,19,17,14,12.70
2010,03,19,17,15,12.70
2010,03,19,17,16,12.80
2010,03,19,17,17,12.80
2010,03,19,17,18,12.80
2010,03,19,17,19,12.80
2010,03,19,17,20,12.70
2010,03,19,17,21,12.70
2010,03,19,17,22,12.70
2010,03,19,17,23,12.80
2010,03,19,17,24,12.80
2010,03,19,17,25,12.80
2010,03,19,17,26,12.80
2010,03,19,17,27,12.80
2010,03,19,17,28,12.70
2010,03,19,17,29,12.70
2010,03,19,17,30,12.70
2010,03,19,17,31,12.70
2010,03,19,17,32,12.70
2010,03,19,17,33,12.70
2010,03,19,17,34,12.70
2010,03,19,17,35,12.70
2010,03,19,17,36,12.70
2010,03,19,17,37,12.70
2010,03,19,17,38,12.70
2010,03,19,17,39,12.70
2010,03,19,17,40,12.70
2010,03,19,17,41,12.70
2010,03,19,17,42,12.70
2010,03,19,17,43,12.70
2010,03,19,17,44,12.70
2010,03,19,17,45,12.70
2010,03,19,17,46,12.70
2010,03,19,17,47,12.70
2010,03,19,17,48,12.70